Terminal Aerodrome Forecast
Issued by NWS

Home | Current Version | Previous Version | Text Only | Print | Product List | Glossary On
Versions: 1 2 3 4 5 6 7 8 9 10 11 12
263
FTUS44 KLZK 140530
TAFBPK
TAF
KBPK 140530Z 1406/1506 12010KT P6SM SCT025 OVC050
     FM140900 14010G18KT P6SM SCT020 BKN060
      TEMPO 1410/1414 5SM -FZDZPL BKN020
     FM141400 15008KT P6SM SCT012 OVC020
      TEMPO 1414/1418 -FZRA BKN012
     FM141800 16008KT P6SM BKN015=

USA.gov is the U.S. government's official web portal to all federal, state and local government web resources and services.